Weather in Dzerzhinsk

Russia / Nizhny Novgorod Oblast'     56°14′18″N   43°27′41″E
temp.,
°C
wind,
m/s
gust,
m/s
humid.,
%
clouds,
%
prec.,
mm/h
press.,
hPa
HPBL,
m
13 may, thu
thu1300:00+15se397067 0.0 1022237
03:00+13se378418 0.1 1022176
06:00+14se27843 0.0 1022214
09:00+20ese47671 0.0 1021750
12:00+23ese6105150 0.0 10201523
15:00+21se7136299 0.1 10181503
18:00+18se51079100 0.9 1017787
21:00+16ssw2393100 3.4 101783
14 may, fri
fri1400:00+14ssw22955 0.0 101826
03:00+13ssw22951 0.0 101926
06:00+14s129049 0.0 101984
09:00+18s2374100 0.0 1020469
12:00+21sse235947 0.0 1020912
15:00+23sse254922 0.0 10191725
18:00+22ese3563100 0.0 1017413
21:00+18se3581100 0.0 1016102
15 may, sat
sat1500:00+16ese379296 0.3 1015153
03:00+16se389382 0.6 1015163
06:00+17se2787100 0.0 1015195
09:00+21sse5866100 0.0 1013515
12:00+25s7114943 0.0 10131075
15:00+26s712505 0.0 10121558
18:00+21s397670 0.6 1012416
21:00+18s312799 1.1 1013328
16 may, sun
sun1600:00+16ssw38865 0.0 1013165
03:00+15ssw23937 0.0 101455
06:00+16ssw2487100 0.0 1015136
09:00+21sw356956 0.0 1015766
12:00+23sw4751100 0.0 10151445
15:00+24wsw4748100 0.0 10141491
18:00+22sw37580 0.0 1014668
21:00+17sw38730 0.0 1015174
17 may, mon
mon1700:00+15w238410 0.0 101656
03:00+13wnw1186100 0.0 101714
06:00+15nnw11785 0.0 101882
09:00+21e11589 0.0 1018526
12:00+24ese11475 0.0 10181037
15:00+26se234922 0.0 10171341
18:00+25e246122 0.0 1016441
21:00+19e238335 1.2 101746